Location: Prague
(50.0830°N, 14.4670°E)
Time: 23:39:28
(UTC+02:00)

N. Korean satellite - Pass Details

Date: 28 September 2021
Orbit: 450 x 495 km, 97.3° (Epoch: 23 October)

Event Time Altitude Azimuth Distance (km) Brightness Sun altitude
Rises 05:40:00 0° 24° (NNE) 2,535 10.8 -13.2°
Reaches altitude 10° 05:42:20 10° 38° (NE) 1,660 10.0 -12.8°
Maximum altitude 05:45:18 24° 94° (E) 1,034 9.2 -12.4°
Drops below altitude 10° 05:48:17 10° 151° (SSE) 1,668 9.5 -11.9°
Sets 05:50:38 0° 165° (SSE) 2,551 10.3 -11.5°
